Lapse_Rate
7.0 6.5 6.5 6.5 6.5 6.5 6.5 6.5 6.5 6.5 6.5 6.5 6.5 6.5 6.5 6.9 7.0 7.0 7.2 7.5 7.6 7.7 7.0 5.7 4.2 4.4 4.4 4.9 4.8 4.7 3.9 3.8 3.7 3.0 3.1 2.6 2.9 2.5 2.0 1.1 0.7 0.7 0.8 0.5
6.5 6.5 6.5 6.5 6.5 6.5 6.5 6.5 6.5 6.5 6.5 6.5 6.5 6.5 6.5 6.5 6.8 7.1 7.3 7.3 7.5 7.7 8.0 7.6 5.6 3.7 3.5 4.0 4.3 4.6 4.4 4.3 3.8 3.6 2.9 2.7 2.6 2.4 2.2 1.6 1.2 0.9 0.5 0.5
6.5 6.5 6.6 6.5 6.5 6.5 6.5 6.5 6.5 6.5 6.5 6.5 6.5 6.5 6.5 6.5 7.0 7.0 6.2 7.3 7.7 7.6 7.5 6.6 4.3 3.2 3.4 4.1 4.0 4.3 4.3 4.4 3.7 2.9 2.4 1.5 1.0 1.4 2.0 2.7 2.3 1.5 0.8 1.0
6.5 6.6 6.5 6.5 6.5 6.5 6.5 6.5 6.5 6.5 6.5 6.5 6.5 6.5 6.5 6.5 6.5 6.5 6.9 7.1 7.3 5.1 4.3 5.2 3.0 2.6 2.9 3.2 3.8 4.1 4.5 4.0 3.4 2.8 2.4 2.5 3.6 4.4 4.1 2.7 2.6 2.2 1.4 1.5
6.5 6.5 6.5 6.5 6.5 6.5 6.5 6.5 6.5 6.5 6.5 6.5 6.5 6.5 6.5 6.5 6.5 6.5 6.5 6.9 6.7 6.6 3.7 2.5 0.9 1.4 2.3 2.6 2.9 3.8 4.5 3.6 3.2 2.4 3.2 3.5 3.5 3.6 3.6 2.4 1.7 1.9 1.8 1.7
6.5 6.9 6.5 6.5 6.5 6.5 6.5 6.5 6.5 6.5 6.5 6.5 6.5 6.5 6.5 6.5 6.5 6.5 6.5 6.7 4.9 3.4 2.5 3.3 2.7 2.4 3.1 3.1 2.7 4.1 4.6 4.1 3.3 3.3 3.7 3.7 3.8 4.0 3.4 3.4 3.5 3.4 2.9 2.2
6.5 6.5 6.5 6.7 6.5 6.5 6.5 6.5 6.5 6.5 6.5 6.5 6.5 6.5 6.5 6.5 6.5 6.5 6.5 6.7 5.6 4.1 3.3 2.6 1.3 0.7 1.8 1.1 1.4 3.7 4.5 4.4 4.0 4.3 4.4 3.8 4.0 4.0 3.6 4.2 3.5 2.4 2.6 3.0
6.5 6.5 6.5 6.5 6.5 6.5 6.5 6.5 6.5 6.5 6.5 6.5 6.5 6.5 6.5 6.5 6.6 6.6 5.7 5.7 4.1 3.9 3.2 2.3 1.9 1.4 0.7 -0.0 0.5 2.3 3.8 4.9 4.6 4.5 4.4 4.2 3.9 3.7 3.5 2.8 2.3 2.4 2.5 2.2
6.5 6.5 6.5 6.5 6.5 6.5 6.5 6.5 6.5 6.5 6.5 6.5 6.5 6.5 6.5 6.5 6.5 6.5 6.7 6.9 6.6 5.0 3.1 2.0 1.0 1.0 0.7 -1.3 -0.8 1.0 3.5 4.6 4.7 4.5 4.7 4.0 3.5 2.8 2.6 2.2 2.0 1.9 2.0 1.6
6.5 6.5 6.5 6.5 6.6 6.6 6.5 6.5 6.5 6.5 6.5 6.5 6.5 6.5 6.5 6.5 6.5 6.5 6.5 6.7 6.2 4.6 3.3 2.0 0.9 0.3 -0.2 -0.3 -0.1 1.7 3.2 4.1 4.7 4.7 4.4 3.9 3.0 2.3 1.8 1.6 1.5 1.6 1.5 1.0
6.5 6.5 6.5 6.5 6.5 6.5 6.5 6.5 6.5 6.5 6.5 6.5 6.5 6.5 6.5 6.5 6.5 6.5 6.5 6.5 6.6 4.6 3.5 2.9 0.9 -0.1 -0.3 0.5 0.2 1.1 3.4 5.4 4.5 4.0 3.5 2.9 2.2 1.4 1.3 1.1 1.4 0.9 0.5 0.5
6.5 6.5 6.5 6.5 6.5 6.5 6.5 6.5 6.5 6.5 6.5 6.5 6.5 6.5 6.5 6.5 6.5 6.5 6.5 4.6 4.5 2.8 2.8 3.6 1.2 -0.1 -0.7 -0.3 0.5 1.5 4.6 5.6 4.0 3.2 2.9 2.4 1.5 1.1 0.9 1.0 0.6 0.3 -0.1 -0.1
6.5 6.5 6.5 6.5 6.5 6.5 6.5 6.5 6.5 6.5 6.5 6.5 6.5 6.5 6.5 6.5 6.5 6.2 6.6 6.8 4.2 3.7 3.6 2.5 1.2 -0.2 -0.6 0.3 1.0 2.8 4.6 4.9 3.0 2.4 2.2 1.3 1.1 0.7 0.5 0.2 -0.1 -0.5 -0.5 -0.8
6.2 6.5 6.5 6.5 6.5 6.5 6.5 6.5 6.5 6.5 6.5 6.5 6.5 6.5 6.5 6.5 6.5 6.5 6.4 5.8 5.0 4.6 3.5 4.1 2.2 0.7 0.4 0.7 1.4 3.0 4.7 3.9 1.8 1.6 1.5 1.4 0.8 0.3 0.0 -0.6 -1.2 -1.5 -1.7 -1.4
6.5 6.5 6.5 6.5 6.5 6.5 6.5 6.5 6.5 6.5 6.5 6.5 6.5 6.5 6.5 6.5 6.5 6.5 6.8 6.6 6.5 6.7 5.3 4.5 2.9 1.3 1.3 1.8 1.6 2.8 3.4 2.1 1.3 1.5 1.2 0.9 0.1 -0.6 -1.0 -1.4 -1.9 -1.9 -1.5 -1.0
6.5 6.5 6.5 6.5 6.5 6.5 6.5 6.5 6.5 6.5 6.5 6.5 6.5 6.5 6.5 6.6 6.8 6.7 6.7 6.7 6.4 6.5 6.9 5.6 3.3 0.9 0.0 0.5 0.8 1.8 2.2 1.3 1.0 1.3 0.7 -0.3 -1.1 -1.8 -2.3 -2.6 -2.7 -2.5 -2.1 -1.0
6.5 6.5 6.5 6.5 6.5 6.5 6.5 6.5 6.5 6.5 6.5 6.5 6.5 6.5 6.5 6.5 6.5 6.5 6.5 6.5 6.2 6.2 6.3 5.7 1.8 -0.0 -1.1 -0.9 -0.3 0.8 0.2 0.2 0.7 0.4 -0.5 -1.6 -2.1 -2.9 -3.2 -3.3 -3.4 -2.8 -1.9 -1.2
6.5 6.5 6.5 6.5 6.5 6.5 6.5 6.5 6.5 6.5 6.5 6.5 6.5 6.5 6.5 6.5 6.5 6.4 6.9 6.3 6.2 6.3 6.1 4.1 1.9 1.2 -0.4 -0.1 0.8 0.7 -0.6 0.0 -0.1 -0.7 -2.1 -2.4 -3.3 -3.7 -3.9 -3.9 -3.1 -2.3 -1.7 -1.2
6.5 6.5 6.5 6.5 6.5 6.5 6.5 6.5 6.5 6.5 6.5 6.5 6.5 6.5 6.5 6.5 6.2 6.7 6.9 6.6 6.8 6.5 6.5 4.9 1.7 1.2 -0.2 -0.5 -0.5 -0.8 -0.0 0.0 -1.0 -1.5 -2.2 -3.0 -3.9 -4.6 -4.5 -4.7 -3.3 -2.3 -1.7 -1.2
6.5 6.5 6.5 6.5 6.5 6.5 6.5 6.5 6.5 6.5 6.5 6.5 6.5 6.5 6.5 6.5 6.5 6.5 6.8 4.3 3.5 0.2 -1.5 -1.0 -0.7 -1.6 -1.0 -1.6 -1.0 -0.0 -0.1 -0.7 -1.3 -1.6 -2.6 -3.5 -4.7 -5.2 -4.8 -4.0 -3.8 -2.3 -2.2 -1.3
6.5 6.5 6.5 6.5 6.5 6.5 6.5 6.5 6.1 6.5 6.5 6.5 6.4 6.5 6.5 6.5 6.5 6.4 1.3 0.9 -2.1 -2.3 -3.8 -4.5 -3.3 -3.1 -3.4 -2.1 -0.1 1.1 -0.0 -0.5 -1.3 -2.5 -3.7 -4.7 -4.9 -5.2 -4.6 -4.2 -3.8 -3.2 -2.5 -1.1
6.5 6.5 6.5 6.5 6.5 6.5 6.5 6.4 6.5 6.5 6.4 6.2 6.2 5.3 4.4 3.6 3.6 3.3 -1.6 -1.1 -1.0 -3.2 -4.4 -4.2 -3.4 -2.6 -2.3 -0.8 1.0 0.5 -0.0 -1.7 -3.2 -4.1 -4.7 -5.4 -5.9 -4.5 -4.3 -5.4 -4.0 -3.2 -1.8 -0.8
6.5 6.5 6.5 6.5 6.5 6.5 6.4 6.5 6.5 6.7 6.5 6.2 6.0 4.9 5.0 5.1 3.2 1.6 -2.5 -4.7 -3.4 -3.4 -3.6 -3.4 -4.4 -2.5 -1.4 1.1 1.3 0.0 -1.7 -3.3 -4.3 -5.3 -5.8 -5.8 -5.4 -4.8 -5.1 -4.1 -3.1 -1.1 -0.8 0.4
6.5 6.5 6.5 6.5 6.5 6.5 6.3 6.4 6.6 6.7 6.5 6.4 6.3 5.6 4.1 5.7 4.4 0.7 -1.8 -3.8 -5.6 -5.1 -4.3 -3.1 -2.5 -2.4 -0.6 0.7 0.7 -1.6 -3.3 -4.3 -5.4 -4.8 -4.6 -4.8 -4.3 -3.8 -3.7 -2.2 -1.6 -1.0 0.0 1.6
6.5 6.5 6.5 6.5 6.5 6.5 6.6 6.8 6.1 4.6 4.1 2.8 3.4 2.7 4.2 5.3 3.1 3.4 0.4 -2.3 -4.3 -4.9 -3.8 -2.4 -0.6 -0.1 -0.7 -0.8 -2.7 -3.2 -5.0 -6.2 -5.3 -3.9 -3.6 -3.3 -2.8 -2.5 -2.1 -1.6 -1.1 -0.3 1.4 4.2
6.5 6.5 6.5 6.5 6.5 6.5 6.5 6.9 6.3 5.9 6.2 6.1 5.5 5.1 3.8 2.2 3.8 3.9 2.2 -1.0 -3.1 -4.7 -3.4 -0.8 2.0 0.7 -1.8 -2.4 -3.8 -5.2 -5.7 -5.6 -4.7 -4.6 -4.0 -3.0 -2.6 -2.3 -1.9 -1.0 0.0 -0.1 1.9 3.4
Wind_Speed
1 7 16 17 17 13 7 8 17 14 4 5 18 22 25 22 19 24 24 21 20 21 18 19 20 21 20 19 18 17 16 14 10 8 6 4 4 4 4 6 5 5 4 5
4 16 19 6 6 9 10 13 22 14 3 8 15 22 22 22 25 24 25 24 21 18 16 18 20 20 21 20 19 18 17 16 12 8 6 3 3 3 4 5 6 5 6 6
17 9 3 9 10 10 12 18 17 11 4 8 10 16 10 8 15 20 23 24 19 17 17 17 19 22 21 22 21 19 18 16 13 11 6 3 2 3 4 5 3 4 6 8
10 5 11 9 11 14 14 8 12 8 5 12 3 18 13 14 14 12 22 14 14 15 14 15 19 22 24 22 18 19 18 16 13 14 10 10 7 6 4 3 4 6 9 10
6 5 7 11 9 12 6 2 4 3 8 6 12 10 9 2 6 17 17 16 12 13 14 17 19 20 19 19 18 18 18 15 13 13 12 9 9 6 4 4 7 7 8 9
7 1 4 3 3 1 8 3 1 2 4 10 18 18 5 5 7 8 13 14 9 10 12 13 14 15 17 17 18 18 19 18 15 15 14 13 12 9 6 6 5 5 5 6
4 9 3 3 4 3 4 3 5 6 6 15 2 8 15 14 12 14 18 15 5 8 9 11 14 15 16 19 19 19 20 20 18 17 15 14 12 10 9 7 5 6 6 7
5 11 12 9 12 4 11 6 6 14 15 25 5 11 11 11 16 20 7 10 4 7 8 10 13 15 17 19 22 23 22 20 20 18 16 12 11 6 6 7 6 6 7 7
9 10 2 1 2 3 8 8 2 6 2 9 13 21 7 9 13 8 15 11 15 12 10 12 13 16 17 20 22 23 21 20 20 18 13 11 9 9 7 7 7 7 7 7
2 8 4 3 2 1 3 3 4 3 7 19 27 30 19 12 15 12 11 13 15 9 12 12 13 15 16 18 19 22 21 21 20 17 13 10 10 9 8 7 8 8 8 10
5 9 5 5 12 16 5 6 5 2 4 10 20 12 4 5 4 8 13 13 9 9 12 12 13 14 15 15 18 19 20 20 18 16 13 11 9 8 7 7 6 7 9 9
9 3 12 19 1 3 2 10 15 8 8 11 11 28 3 3 5 4 3 5 7 9 12 11 12 14 15 17 18 19 18 18 17 14 12 10 9 8 7 6 7 7 8 8
9 4 5 11 4 1 7 6 10 13 14 32 11 29 13 14 15 11 12 12 8 14 13 12 12 15 16 16 16 17 18 18 16 14 12 10 9 7 7 6 6 6 7 9
12 7 14 21 18 3 6 10 16 22 18 21 24 35 39 33 31 26 20 13 15 16 13 15 15 15 15 15 16 18 18 17 16 14 12 11 9 8 6 5 6 6 7 9
6 11 14 23 25 21 23 21 21 25 27 25 35 28 34 35 33 27 23 18 25 22 13 18 16 15 15 15 16 16 16 16 15 14 12 10 9 6 4 5 5 6 7 9
7 20 24 30 34 32 29 22 31 31 38 33 29 32 35 35 36 33 36 28 27 25 25 21 17 14 16 18 18 17 16 15 14 13 12 10 8 6 5 3 5 6 8 9
9 11 14 21 25 19 15 36 34 41 34 32 32 37 35 34 31 30 34 23 22 25 23 16 17 18 17 18 19 20 18 16 14 12 11 10 8 7 4 4 4 7 7 8
14 16 12 10 7 16 21 23 32 39 37 32 30 34 36 35 34 27 25 19 25 24 23 13 13 13 15 17 18 17 17 15 14 13 11 10 8 6 5 4 5 5 5 7
25 20 9 8 15 11 2 15 25 22 30 26 32 35 36 37 14 31 18 20 23 24 19 9 9 11 15 18 18 18 16 15 13 13 12 10 8 6 4 4 4 4 6 7
26 24 17 8 9 15 16 28 28 8 9 30 26 28 29 24 14 21 21 6 11 4 3 8 13 13 15 15 17 18 16 15 14 14 12 10 8 6 5 3 3 3 5 7
7 11 22 22 20 12 12 11 5 13 19 29 29 27 22 17 18 21 2 2 0 1 9 14 14 13 16 16 18 16 15 14 13 12 11 9 7 6 4 3 2 3 5 6
18 11 11 14 16 23 18 19 24 28 31 24 21 11 8 12 14 12 7 3 2 7 11 12 12 12 14 16 17 17 15 15 14 13 11 10 7 5 5 3 2 2 3 5
21 23 22 22 17 17 17 30 33 32 30 25 18 12 14 13 13 11 9 12 15 15 13 12 14 13 14 13 13 16 15 14 13 12 11 9 8 6 5 3 2 1 2 4
20 20 21 26 25 20 17 18 20 22 24 23 21 10 8 15 11 9 7 9 12 15 15 14 16 18 15 12 11 12 15 14 11 10 10 8 7 6 4 3 2 1 2 4
10 12 8 9 15 21 24 17 12 12 12 13 16 10 16 14 14 15 12 12 13 14 14 16 15 16 17 14 14 14 14 14 12 11 8 7 5 5 4 3 1 0 1 6
19 22 18 20 22 17 20 22 17 16 18 20 18 18 16 14 21 15 15 14 15 16 16 16 16 18 17 15 14 14 13 13 13 11 8 6 5 4 4 3 2 2 3 7
Wind_Direction
134 223 234 241 227 269 269 260 266 267 196 235 250 256 271 282 274 262 267 259 248 238 232 213 204 199 195 193 191 192 187 188 182 185 189 206 211 198 227 224 245 248 285 303
185 238 252 243 231 230 237 259 264 283 199 213 273 269 272 266 266 266 268 265 256 246 231 212 202 199 198 192 194 194 193 189 191 190 190 187 187 217 253 258 256 265 299 307
230 245 79 199 218 211 234 238 258 260 313 226 283 271 245 259 254 272 263 258 257 236 226 208 202 202 199 197 195 195 194 191 191 187 172 166 197 246 246 239 256 291 294 287
242 261 229 213 234 203 243 234 248 268 285 275 2 289 277 272 264 249 270 256 240 225 218 203 202 204 204 201 193 193 193 190 189 184 186 196 208 224 226 262 277 277 273 281
221 182 198 216 236 179 244 111 181 201 250 304 252 269 274 134 251 259 263 266 229 226 206 199 202 206 205 196 193 191 190 190 186 187 196 199 213 230 243 259 274 280 295 305
259 155 215 213 84 182 135 119 161 162 251 255 257 232 260 190 212 244 258 265 210 195 200 202 197 199 201 195 194 194 192 192 188 190 197 203 210 214 226 236 257 285 296 278
206 221 172 184 151 135 193 180 285 257 238 267 131 255 263 277 237 236 250 265 164 182 188 191 191 194 193 194 193 196 193 196 190 193 197 202 210 214 230 241 244 255 263 268
223 257 185 177 222 218 186 215 204 274 282 289 109 251 276 229 245 251 277 261 207 208 208 206 201 197 195 194 195 196 196 196 193 193 195 198 201 209 220 229 238 253 257 269
194 249 108 295 101 184 157 197 318 283 100 286 256 258 229 203 238 242 251 258 252 228 214 212 204 205 198 198 200 199 196 194 194 192 191 190 193 205 219 232 240 250 256 266
231 276 146 115 146 81 217 118 136 198 271 270 280 290 284 234 239 234 247 240 253 220 212 212 207 207 208 206 201 201 198 194 189 187 185 185 190 202 219 228 236 249 264 265
165 204 209 150 201 207 177 202 203 272 226 266 281 271 148 161 151 203 224 236 252 242 229 214 210 209 210 208 203 200 196 191 182 180 175 179 187 201 217 233 246 254 267 275
205 192 235 240 95 336 314 233 207 225 224 236 267 273 113 249 210 232 244 265 258 237 218 212 207 206 209 206 201 201 192 186 177 169 172 179 184 200 218 234 246 260 276 288
173 210 242 259 223 217 208 198 230 237 257 249 223 260 210 277 275 273 254 259 233 236 224 218 212 209 210 208 202 195 189 182 166 162 169 176 187 198 216 239 257 271 288 291
167 174 223 242 245 132 184 212 224 223 236 255 239 256 275 275 271 281 279 259 241 237 225 226 223 218 213 205 193 188 185 174 160 162 170 178 186 197 214 238 260 270 283 292
153 236 237 247 263 265 271 270 251 236 242 247 259 265 266 275 280 278 281 285 275 270 234 232 228 216 209 197 185 181 175 166 160 164 169 178 179 188 208 243 266 287 292 287
197 237 235 255 263 266 259 251 255 260 259 255 254 266 265 269 276 283 276 269 272 273 262 244 225 208 197 191 182 174 168 161 160 166 169 167 169 175 206 242 272 283 281 284
209 221 221 240 234 248 258 243 246 252 255 255 263 255 263 266 264 262 270 282 273 263 264 252 208 202 194 185 175 174 162 151 159 161 159 166 169 181 195 229 260 273 283 302
227 228 229 251 237 229 233 235 236 244 251 256 256 260 265 264 264 271 274 267 266 268 268 247 206 194 182 171 171 159 150 151 154 156 162 167 172 179 192 222 256 281 298 299
222 225 231 227 224 252 227 230 223 233 249 252 252 262 259 263 300 279 280 253 258 264 270 260 189 170 163 163 156 152 145 147 150 160 165 165 167 175 193 218 249 294 306 306
224 222 220 205 229 234 229 238 239 231 255 255 243 246 256 275 281 278 292 231 247 286 148 148 142 137 148 154 154 153 153 154 161 161 157 157 161 170 185 212 268 305 299 299
183 206 221 230 242 243 219 223 98 202 241 243 246 251 251 242 234 251 129 231 51 151 142 137 145 156 153 157 158 152 151 160 153 145 144 147 156 165 179 203 279 285 301 309
214 195 208 228 240 244 222 220 216 236 247 247 254 241 207 223 238 230 157 110 257 168 155 159 149 152 155 162 158 152 157 146 145 143 144 149 151 169 165 188 210 284 311 318
237 229 237 220 231 224 214 220 225 235 250 256 254 248 225 232 231 223 191 184 186 183 174 168 152 151 153 166 160 148 144 145 145 142 147 150 154 165 166 171 100 357 337 341
248 254 252 257 253 242 241 240 244 240 241 253 260 265 201 234 238 217 202 193 183 174 171 162 159 156 157 157 151 134 143 141 139 144 149 151 151 152 152 146 126 158 6 330
279 312 299 300 296 306 294 278 266 258 258 271 267 248 245 245 241 227 218 199 191 175 167 165 170 165 157 151 138 142 144 143 144 145 149 145 138 140 135 104 119 64 352 309
272 276 273 268 276 274 281 288 293 285 265 261 265 268 258 251 261 241 230 202 183 175 165 168 170 162 155 151 145 145 154 151 145 143 148 154 144 142 126 127 117 55 314 337